Blytheville Muni Airport, AR

1:08 AM CST on December 12, 2017 (GMT -0600)
Blytheville Municipal

Weather History for KHKA - December, 2012

Change the Weather History Date:

Sunday, December 9, 2012

  Actual Average Record
Temperature  
Mean Temperature 60 °F -  
Max Temperature 66 °F 52 °F 70 °F (1939)
Min Temperature 52 °F 34 °F 10 °F (1937)
Degree Days  
Heating Degree Days 6    
Growing Degree Days 10 (Base 50)    
Moisture  
Dew Point 59 °F    
Average Humidity 91    
Maximum Humidity 100    
Minimum Humidity 82    
Precipitation  
Precipitation 0.60 in - - ()
Sea Level Pressure  
Sea Level Pressure 29.82 in    
Wind  
Wind Speed 10 mph (SW)    
Max Wind Speed 22 mph    
Max Gust Speed 26 mph    
Visibility 8 miles    
Events Fog , Rain , Thunderstorm    
Averages and records for this station are not official NWS values.
T = Trace of Precipitation, MM = Missing Value Source: NWS Daily Summary

Daily Weather History Graph

Daily Weather History Graph

Search for Another Location

Airport or City:

Trip Planner

Search our weather history database for the weather conditions in past years. The results will help you decide how hot, cold, wet, or windy it might be!

Date:

Astronomy

Dec. 09, 2012 Rise Set
Actual Time 6:58 AM CST 4:45 PM CST
Civil Twilight 6:30 AM CST 5:13 PM CST
Nautical Twilight 5:58 AM CST 5:45 PM CST
Astronomical Twilight 5:26 AM CST 6:16 PM CST
Moon 2:37 AM CST (12/9) 1:47 PM CST (12/9)
Length of Visible Light 10h 43m
Length of Day
9h 46m
Waning Crescent, 18% of the Moon is Illuminated
Dec 9
Waning Crescent
Dec 13
New
Dec 19
First Quarter
Dec 28
Full
Jan 4
Last Quarter

Hourly Weather History & Observations

Time (CST) Temp. Dew Point Humidity Pressure Visibility Wind Dir Wind Speed Gust Speed Precip Events Conditions
12:53 AM 57.0 °F 57.0 °F 100% 29.89 in 0.2 mi East 5.8 mph - N/A Fog Fog
1:14 AM 57.2 °F 57.2 °F 100% 29.86 in 0.5 mi East 8.1 mph - N/A Fog Fog
1:51 AM 59.0 °F 57.2 °F 94% 29.85 in 0.8 mi SE 6.9 mph - N/A Thunderstorm Unknown
1:53 AM 59.0 °F 57.9 °F 96% 29.85 in 0.8 mi SE 5.8 mph - N/A Thunderstorm Unknown
2:07 AM 60.8 °F 59.0 °F 94% 29.85 in 1.8 mi NE 4.6 mph - N/A Thunderstorm Overcast
2:15 AM 60.8 °F 60.8 °F 100% 29.87 in 2.5 mi North - - N/A Thunderstorm Overcast
2:34 AM 62.6 °F 60.8 °F 94% 29.86 in 7.0 mi Calm Calm - N/A Rain , Thunderstorm Light Rain
2:43 AM 60.8 °F 59.0 °F 94% 29.86 in 9.0 mi North 11.5 mph - N/A Rain Light Rain
2:53 AM 57.9 °F 55.9 °F 93% 29.86 in 10.0 mi North 6.9 mph - N/A Rain Light Rain
3:53 AM 59.0 °F 57.9 °F 96% 29.84 in 10.0 mi SSE 8.1 mph - 0.00 in   Overcast
4:27 AM 62.6 °F 60.8 °F 94% 29.85 in 10.0 mi WSW 10.4 mph - 0.00 in Rain Light Rain
4:53 AM 62.1 °F 59.0 °F 90% 29.83 in 10.0 mi South 9.2 mph - 0.01 in Rain Light Rain
5:14 AM 62.6 °F 60.8 °F 94% 29.84 in 10.0 mi SSW 9.2 mph - 0.00 in Thunderstorm Mostly Cloudy
5:35 AM 62.6 °F 60.8 °F 94% 29.85 in 6.0 mi SSW 11.5 mph - 0.03 in Rain Heavy Rain
5:53 AM 62.1 °F 60.1 °F 93% 29.86 in 10.0 mi SSW 17.3 mph 23.0 mph 0.04 in Rain Light Rain
6:53 AM 61.0 °F 57.9 °F 90% 29.84 in 10.0 mi South 15.0 mph - 0.04 in   Scattered Clouds
7:53 AM 62.1 °F 60.1 °F 93% 29.84 in 10.0 mi South 12.7 mph 20.7 mph N/A   Overcast
8:53 AM 63.0 °F 57.9 °F 84% 29.85 in 10.0 mi SSW 13.8 mph 21.9 mph N/A   Mostly Cloudy
9:53 AM 62.1 °F 59.0 °F 90% 29.84 in 10.0 mi South 17.3 mph 26.5 mph 0.01 in Rain Light Rain
10:53 AM 62.1 °F 60.1 °F 93% 29.86 in 10.0 mi South 15.0 mph 25.3 mph 0.01 in Rain Light Rain
11:35 AM 62.6 °F 60.8 °F 94% 29.83 in 10.0 mi South 12.7 mph - 0.00 in Rain Light Rain
11:53 AM 64.0 °F 61.0 °F 90% 29.83 in 10.0 mi South 15.0 mph - 0.00 in   Overcast
12:53 PM 64.0 °F 61.0 °F 90% 29.81 in 10.0 mi South 13.8 mph - N/A   Overcast
1:53 PM 66.0 °F 61.0 °F 84% 29.79 in 10.0 mi SSW 13.8 mph 26.5 mph N/A   Overcast
2:03 PM 66.2 °F 60.8 °F 83% 29.79 in 10.0 mi SSW 15.0 mph - N/A   Overcast
2:23 PM 66.2 °F 60.8 °F 83% 29.78 in 10.0 mi SSW 16.1 mph 23.0 mph N/A   Overcast
2:53 PM 66.0 °F 61.0 °F 84% 29.77 in 10.0 mi South 15.0 mph 24.2 mph N/A   Mostly Cloudy
3:03 PM 66.2 °F 60.8 °F 83% 29.77 in 10.0 mi South 13.8 mph - N/A   Overcast
3:53 PM 66.0 °F 62.1 °F 87% 29.75 in 10.0 mi South 16.1 mph - N/A   Mostly Cloudy
4:00 PM 66.2 °F 62.6 °F 88% 29.75 in 10.0 mi South 18.4 mph 23.0 mph N/A   Scattered Clouds
4:53 PM 66.0 °F 62.1 °F 87% 29.76 in 10.0 mi South 10.4 mph - N/A   Partly Cloudy
5:53 PM 66.0 °F 62.1 °F 87% 29.77 in 10.0 mi SSW 11.5 mph - N/A   Mostly Cloudy
6:01 PM 64.4 °F 62.6 °F 94% 29.77 in 10.0 mi SSW 11.5 mph - N/A   Scattered Clouds
6:35 PM 66.2 °F 62.6 °F 88% 29.76 in 10.0 mi SSW 12.7 mph - N/A Thunderstorm Scattered Clouds
6:53 PM 64.9 °F 62.1 °F 90% 29.76 in 10.0 mi SW 9.2 mph - N/A Thunderstorm Partly Cloudy
7:01 PM 64.4 °F 62.6 °F 94% 29.77 in 10.0 mi WSW 9.2 mph - N/A   Partly Cloudy
7:18 PM 62.6 °F 57.2 °F 82% 29.78 in 10.0 mi WNW 10.4 mph - N/A Thunderstorm Mostly Cloudy
7:44 PM 62.6 °F 57.2 °F 82% 29.79 in 7.0 mi West 21.9 mph 26.5 mph 0.04 in Rain , Thunderstorm Light Rain
7:46 PM 60.8 °F 57.2 °F 88% 29.79 in 5.0 mi West 19.6 mph 26.5 mph 0.07 in Rain , Thunderstorm Heavy Rain
7:53 PM 61.0 °F 57.9 °F 90% 29.78 in 4.0 mi West 15.0 mph 25.3 mph 0.11 in Rain , Thunderstorm Heavy Thunderstorms and Rain
8:30 PM 60.8 °F 57.2 °F 88% 29.78 in 5.0 mi WSW 8.1 mph - 0.20 in Rain Rain
8:37 PM 60.8 °F 57.2 °F 88% 29.79 in 6.0 mi West 8.1 mph - 0.22 in Rain , Thunderstorm Rain
8:53 PM 60.1 °F 59.0 °F 96% 29.79 in 5.0 mi Variable 4.6 mph - 0.27 in Rain , Thunderstorm Rain
8:56 PM 60.8 °F 59.0 °F 94% 29.79 in 4.0 mi Calm Calm - 0.01 in Rain Heavy Rain
9:12 PM 60.8 °F 57.2 °F 88% 29.79 in 9.0 mi North 16.1 mph - 0.03 in Rain Light Rain
9:53 PM 57.0 °F 55.0 °F 93% 29.82 in 9.0 mi NW 18.4 mph 23.0 mph 0.03 in   Overcast
10:09 PM 55.4 °F 55.4 °F 100% 29.83 in 3.0 mi NW 17.3 mph - 0.05 in Rain Heavy Rain
10:53 PM 55.0 °F 54.0 °F 96% 29.81 in 8.0 mi North 16.1 mph - 0.08 in   Overcast
11:03 PM 53.6 °F 53.6 °F 100% 29.81 in 10.0 mi North 17.3 mph - N/A   Overcast
11:15 PM 53.6 °F 51.8 °F 94% 29.82 in 10.0 mi North 15.0 mph - N/A   Overcast
11:29 PM 53.6 °F 51.8 °F 94% 29.84 in 10.0 mi North 13.8 mph - N/A   Overcast
11:41 PM 53.6 °F 50.0 °F 88% 29.84 in 10.0 mi NNW 13.8 mph - N/A   Overcast
11:53 PM 52.0 °F 48.9 °F 89% 29.84 in 10.0 mi NNW 20.7 mph 25.3 mph N/A   Overcast